Temp
10 10 10 9 9 9 9 9 9 10 9 9 10 10 10 10 10 10 10 10 10 10 10 10 11 14 16 16 17 17 18 18 18 16 16 23 27 26 26 26 26 26 25 25 25 25 24 24 25 26 26 26 26 26 26 25 24 25 25 24 24 24 25 25 26 25 25 24 23 23 24 24 24 23 23 24 24 26 27 27 27 27 27 27 26 26 26 25
10 9 9 9 9 9 9 9 9 9 9 10 10 10 10 10 10 10 10 11 11 10 10 9 11 14 15 16 16 16 17 16 15 14 20 27 27 26 26 26 26 26 25 25 25 25 25 25 25 26 26 26 26 27 26 25 24 25 25 24 25 26 27 27 26 26 25 24 23 24 25 25 25 24 24 24 24 26 27 26 27 27 26 26 26 26 26 25
9 9 9 9 9 9 9 9 9 9 9 9 9 10 10 10 10 10 12 14 14 11 10 9 10 13 15 15 16 16 15 14 17 21 25 28 27 27 26 26 26 26 26 25 26 26 25 26 26 26 26 26 27 27 26 25 24 26 26 25 26 27 27 27 27 26 25 25 24 24 25 25 25 24 24 24 24 26 26 26 26 26 25 25 26 26 26 25
9 9 9 9 9 9 9 9 9 9 9 9 9 9 9 10 12 13 13 15 15 12 10 10 10 13 15 15 15 15 13 16 23 27 28 28 28 28 26 26 26 26 26 26 26 26 26 26 27 27 26 26 27 28 27 25 25 26 26 27 28 28 27 27 27 26 26 25 25 25 25 25 24 24 24 25 25 26 26 27 27 26 25 25 25 26 26 25
9 9 9 9 9 9 9 9 9 9 10 10 10 10 10 11 12 13 13 13 14 13 11 10 10 13 15 15 15 14 15 21 26 27 28 28 29 28 26 26 26 26 26 26 26 26 26 26 27 27 27 26 27 28 28 26 26 26 26 28 29 28 27 27 27 26 26 26 25 25 25 25 24 24 24 25 26 26 27 28 27 26 26 25 25 26 26 25
9 9 9 9 9 9 9 9 9 9 10 11 12 12 12 13 12 12 12 13 13 13 12 10 10 13 15 15 15 14 18 24 26 26 28 28 28 28 26 26 25 25 25 25 26 26 26 26 26 26 27 27 28 29 29 27 27 27 27 28 29 29 28 27 27 26 26 26 25 25 26 26 25 24 24 25 26 26 27 28 28 27 26 26 26 26 26 25
9 9 9 9 9 9 9 9 9 9 10 11 11 13 15 15 13 11 12 14 13 12 11 10 10 13 15 15 15 15 18 23 25 27 28 27 28 28 26 25 25 25 25 25 25 25 26 26 26 26 27 28 28 29 29 28 28 28 29 29 29 29 28 27 27 27 26 26 26 26 26 26 26 25 24 24 26 26 28 29 28 27 27 27 26 26 26 26
9 9 9 9 9 9 9 9 9 9 10 11 12 14 15 16 15 12 12 14 13 11 10 10 11 13 15 14 16 17 19 23 27 28 27 28 28 27 26 25 24 25 25 24 25 25 26 26 26 27 28 29 29 30 30 29 28 28 29 30 30 29 28 28 27 27 27 26 26 26 26 26 26 25 24 24 26 26 28 28 28 27 27 27 26 26 26 26
9 9 9 9 9 9 9 9 9 10 11 12 14 15 15 15 15 14 13 13 13 11 10 10 11 14 14 13 15 20 23 26 28 27 27 27 27 27 26 25 24 25 25 24 25 25 26 26 27 28 29 29 30 31 30 29 28 29 30 31 30 29 28 28 27 27 27 26 26 26 26 26 26 25 24 24 25 26 27 28 28 27 27 27 26 26 26 26
9 9 9 9 9 9 9 9 9 11 13 13 15 15 15 16 16 15 14 13 13 12 10 10 11 13 13 13 17 22 26 28 28 27 27 27 27 26 25 26 25 25 25 25 25 25 26 26 28 29 30 30 31 31 30 30 30 30 31 31 30 29 28 28 27 27 27 27 27 26 25 26 26 25 24 24 23 25 28 28 27 27 27 27 27 26 26 26
11 11 10 9 9 9 9 10 11 13 15 15 15 16 16 17 16 16 15 14 14 13 12 10 11 13 13 14 18 23 27 27 27 27 27 27 26 25 25 26 25 25 25 25 25 25 26 27 28 29 30 31 31 31 31 31 32 31 31 31 29 28 27 26 27 27 27 27 27 26 25 26 25 24 24 23 23 24 27 28 27 27 27 27 27 27 27 27
15 14 14 12 11 11 10 12 14 15 16 16 17 17 17 17 17 16 15 15 14 14 14 12 12 13 13 14 18 24 27 27 27 26 26 27 26 26 26 25 26 26 26 26 26 26 26 27 28 27 29 30 31 31 31 32 32 31 30 29 27 27 25 24 25 27 27 26 27 27 25 25 24 23 23 24 23 24 26 28 28 28 28 28 28 27 27 27
16 16 16 15 15 14 13 14 15 16 17 17 18 18 18 18 17 17 16 16 15 15 15 14 13 12 14 18 22 25 27 27 26 26 26 26 26 26 26 25 26 27 27 27 27 27 27 27 28 28 29 30 30 32 31 32 32 30 30 28 26 25 25 24 24 26 28 26 27 27 24 23 23 23 23 24 24 24 25 26 28 28 28 28 28 27 28 28
17 17 17 17 17 16 15 15 16 17 18 18 19 19 19 18 17 17 17 17 17 16 15 15 13 12 15 21 25 26 27 26 26 26 26 26 26 26 25 26 26 27 27 28 28 28 28 28 29 28 30 30 31 32 31 32 31 30 28 28 26 23 24 26 25 26 27 25 27 27 23 22 24 23 23 24 24 25 24 24 26 28 28 28 28 28 28 28
17 17 18 18 18 18 17 17 17 18 19 20 20 19 19 19 18 18 18 18 17 17 16 15 13 14 16 20 24 26 26 26 26 27 27 26 26 26 26 26 26 27 27 28 28 28 28 29 28 28 30 31 32 31 30 31 31 29 26 24 25 24 24 27 26 27 27 26 27 26 23 23 24 24 23 23 23 24 24 23 24 27 28 28 28 28 28 28
17 18 18 18 18 18 18 18 18 20 20 20 20 20 20 19 18 18 19 18 18 17 16 15 14 15 18 21 24 26 26 27 27 28 28 27 27 27 27 27 26 27 27 28 28 28 29 29 29 30 31 31 31 30 29 28 28 30 27 23 23 24 24 25 27 28 27 26 26 25 24 24 24 24 23 23 23 24 24 23 23 26 29 28 28 28 28 28
17 18 18 18 19 19 19 19 20 20 21 21 21 21 20 19 19 18 18 18 18 17 16 16 15 15 19 23 24 26 27 27 28 29 28 28 29 28 28 27 27 27 27 28 28 28 28 29 29 30 31 30 30 29 26 23 23 27 28 25 24 25 24 24 26 28 27 26 26 26 25 24 24 24 23 23 24 24 23 23 24 26 28 28 28 28 28 28
17 18 18 19 19 19 19 20 20 21 21 21 21 21 20 19 18 18 17 17 16 16 16 17 16 17 20 23 24 26 27 27 28 29 29 29 29 29 28 27 28 28 27 28 28 28 28 29 30 29 29 29 29 28 24 23 24 25 26 25 24 25 24 24 25 27 27 26 26 26 25 24 24 24 23 23 24 24 23 24 24 25 28 28 28 28 28 28
18 18 19 19 20 19 20 20 21 21 21 22 22 21 21 19 18 18 17 16 17 18 20 19 19 21 23 24 25 26 27 28 28 29 29 29 29 29 29 29 29 28 27 27 27 28 29 29 28 27 27 28 29 28 26 27 28 27 28 26 24 24 24 26 26 27 27 26 26 26 25 24 24 24 23 23 23 24 23 24 24 25 27 28 28 28 28 28
18 18 19 19 20 20 20 20 21 22 22 22 22 21 21 20 20 19 17 17 18 21 23 21 20 22 23 24 25 26 27 28 28 29 29 29 29 28 29 29 29 28 27 27 27 28 29 28 26 26 27 28 28 28 28 29 29 30 30 28 26 24 25 27 27 27 28 26 25 26 25 24 24 24 23 23 23 24 24 24 24 25 27 28 28 28 28 28
18 19 19 19 20 20 20 20 21 21 21 22 21 20 21 21 22 22 21 20 20 20 21 22 22 22 23 24 25 27 28 28 28 29 29 30 30 28 28 29 28 27 27 28 28 28 28 26 26 27 28 29 29 29 29 29 29 30 29 28 27 25 25 27 27 27 28 27 25 25 25 24 24 24 23 23 24 24 24 24 25 26 27 27 28 28 28 28
19 19 19 20 20 21 20 20 20 21 21 21 19 19 20 22 23 24 24 22 22 22 22 22 22 23 24 25 25 27 28 27 28 28 29 30 29 28 28 28 27 26 27 28 27 27 26 25 26 28 29 29 29 29 29 29 30 30 29 28 25 26 26 27 28 28 28 27 24 25 24 24 24 24 23 23 24 24 24 24 24 25 26 27 28 28 29 28
19 19 20 20 21 21 21 21 21 21 21 21 19 19 21 24 25 25 24 23 22 24 24 24 23 23 24 25 26 28 28 27 27 28 29 29 28 28 27 27 27 27 27 27 26 25 24 25 28 28 28 29 29 29 29 29 29 29 29 26 24 26 26 24 26 28 28 27 25 25 24 23 24 24 23 23 23 24 24 24 24 23 25 26 27 28 29 28
20 20 20 20 21 21 21 22 22 21 21 20 20 22 24 25 25 24 24 23 22 23 25 25 25 25 25 26 28 28 28 28 28 28 29 29 27 28 27 27 27 27 27 27 27 25 25 27 29 28 28 29 28 29 29 28 27 29 30 27 25 27 27 25 27 28 27 26 26 25 23 22 24 24 23 23 23 23 24 24 24 24 24 25 26 27 28 28
20 20 20 21 21 22 22 22 22 22 21 20 21 24 25 25 25 24 24 22 21 23 25 26 26 27 27 28 28 28 28 28 28 28 29 29 28 28 27 28 27 26 27 27 27 26 27 28 29 28 28 29 28 29 29 28 26 27 30 30 28 28 28 27 28 27 24 23 25 26 22 21 23 24 24 23 23 24 23 24 24 24 24 24 25 27 27 28
20 20 21 21 21 22 23 23 22 22 21 21 24 25 25 25 25 25 24 21 21 24 26 26 26 27 28 28 28 28 27 27 29 29 29 29 29 29 28 27 28 27 27 28 27 27 28 29 29 29 28 28 28 28 29 30 26 24 29 32 30 29 28 28 28 25 22 22 25 27 23 21 22 23 24 24 23 24 23 24 24 24 24 25 25 26 27 27
20 20 21 21 21 22 22 23 22 21 22 24 25 25 25 25 25 25 23 20 21 24 26 25 26 27 27 28 28 27 25 26 29 29 29 29 29 29 27 27 28 27 28 28 25 26 29 29 29 29 29 28 28 27 30 31 27 25 31 32 30 29 28 28 28 25 24 24 25 27 25 21 21 23 24 24 23 24 24 24 24 24 25 25 25 25 26 27
20 21 21 21 21 21 21 21 20 20 23 24 25 25 25 25 25 24 22 19 22 25 26 26 26 26 27 28 28 27 26 27 27 28 29 30 29 29 27 27 27 27 29 27 23 26 30 29 29 29 28 28 28 29 31 31 29 29 33 32 30 30 30 29 28 25 26 25 22 24 25 22 20 23 24 24 23 23 24 24 24 24 24 25 25 25 25 26
20 21 21 22 21 21 20 20 19 21 24 24 24 24 25 24 24 23 21 20 23 25 26 26 26 26 27 27 27 27 28 28 27 28 29 29 29 29 27 27 28 27 28 27 25 27 30 30 30 30 29 28 29 31 31 31 31 32 34 33 31 31 30 30 28 26 25 23 21 22 24 22 21 22 23 23 23 24 24 24 24 24 24 24 25 25 24 25
21 21 21 22 21 21 20 20 21 24 25 24 24 24 24 24 23 21 20 21 23 25 26 26 26 27 27 26 26 27 27 27 28 28 28 28 28 28 28 28 28 27 27 28 27 28 30 31 31 31 30 30 31 32 32 32 33 33 34 33 31 30 30 29 27 25 23 22 22 23 24 23 21 22 23 23 24 25 25 25 24 24 24 24 25 25 24 24
21 21 21 22 21 21 20 21 24 25 24 24 24 24 24 23 22 20 20 23 23 25 26 26 26 27 27 26 26 27 27 27 28 28 28 28 28 27 28 28 27 26 26 26 28 29 30 30 31 32 32 32 32 32 32 33 33 33 33 32 28 26 26 24 23 24 22 21 23 24 25 24 21 22 24 25 26 27 26 25 25 24 24 24 24 24 24 24
22 22 22 22 22 22 21 23 25 25 24 24 23 23 23 22 21 20 21 24 23 24 26 26 27 27 27 27 27 27 27 27 28 28 27 27 27 27 27 27 26 25 23 24 26 28 29 30 31 32 33 33 32 30 31 32 32 32 31 28 24 22 22 21 21 22 22 22 24 25 25 23 22 24 26 26 27 27 27 27 26 25 25 25 25 25 25 25
22 23 23 23 23 23 23 24 25 24 24 23 23 24 23 21 20 21 22 23 23 25 26 26 27 27 27 27 26 27 28 27 28 28 28 27 27 27 27 27 28 25 23 24 24 24 26 29 31 31 31 32 32 29 27 28 30 31 28 25 23 22 21 21 21 22 22 22 24 26 25 22 22 25 27 28 27 27 27 27 27 26 25 25 25 25 26 26
23 23 23 23 23 24 25 25 25 24 23 22 23 23 22 20 21 22 22 23 24 26 26 26 26 26 27 27 27 27 27 27 28 28 27 27 26 26 27 27 28 28 26 24 23 23 22 24 28 30 30 31 33 31 29 29 30 31 31 28 25 23 22 22 22 22 22 22 23 25 24 22 22 24 26 28 28 28 28 27 27 26 26 26 25 25 26 26
23 23 23 24 24 25 26 25 25 24 22 22 23 22 21 20 21 22 22 24 25 25 25 25 25 24 25 27 27 27 27 26 27 28 27 27 25 25 27 27 27 28 27 24 23 24 22 23 28 31 31 32 33 32 32 31 29 30 32 29 25 26 25 23 23 23 23 22 22 22 22 22 23 24 25 28 28 28 28 27 27 26 26 26 25 25 25 25
23 24 24 24 25 26 26 26 25 23 22 23 22 21 21 21 22 23 24 25 25 25 24 24 24 23 22 24 25 26 26 26 27 27 26 26 25 25 26 26 26 27 26 24 24 24 22 23 29 30 31 34 34 32 33 31 28 29 28 26 28 31 29 24 22 24 23 22 21 21 21 22 24 25 25 27 28 28 28 27 27 26 26 25 25 25 25 25
23 23 23 24 25 26 26 26 24 23 23 23 21 21 23 23 24 25 25 26 25 25 24 22 23 22 21 22 23 24 25 25 25 25 24 24 24 24 25 26 26 27 26 26 25 25 23 23 27 30 30 33 33 32 33 32 31 29 26 27 31 31 30 26 23 23 22 21 21 21 21 21 22 23 24 26 27 27 26 26 26 26 26 26 25 25 24 23
21 21 22 24 26 27 27 26 24 23 23 23 21 22 24 24 25 26 26 26 26 25 24 21 22 23 22 21 22 24 25 24 24 24 23 22 23 25 25 25 26 26 26 26 25 26 25 22 26 30 29 31 33 31 30 31 33 30 28 31 30 25 25 25 23 22 22 21 21 21 21 21 21 22 23 24 25 25 25 26 25 25 25 24 24 23 22 21
20 21 23 26 27 27 27 26 24 23 23 22 22 23 24 24 26 27 27 26 26 25 24 22 23 23 23 22 22 24 25 23 23 23 22 22 23 25 26 25 26 26 26 27 26 26 27 23 23 28 30 30 31 29 26 27 31 32 31 32 30 26 25 24 24 23 22 21 21 21 21 21 22 23 23 23 22 22 23 24 23 23 23 23 23 22 21 21
19 22 24 27 28 27 27 26 24 24 23 22 23 24 25 25 26 27 27 27 26 25 24 24 24 23 23 23 23 24 24 24 24 23 23 23 23 24 26 25 25 26 26 27 26 25 27 24 22 26 29 29 27 28 27 28 29 29 27 27 27 27 26 26 25 24 22 21 21 21 21 21 22 23 23 22 22 22 22 23 22 22 22 22 22 22 21 21
19 22 24 27 28 27 27 25 24 24 24 23 23 24 25 26 26 26 27 27 26 25 25 25 24 23 23 23 23 24 24 24 24 23 23 24 24 24 25 25 25 25 25 26 25 25 25 24 22 23 25 25 26 29 31 31 30 29 27 27 27 27 25 24 23 23 23 22 21 21 21 20 22 23 22 22 22 23 23 23 22 22 22 22 22 22 22 22
20 23 25 27 27 27 27 25 24 24 24 24 24 25 26 26 26 25 26 27 26 26 26 25 24 24 23 24 24 24 24 24 23 24 24 24 24 24 25 26 26 25 25 24 24 24 24 24 23 22 23 25 28 30 30 30 31 31 30 30 30 28 26 22 22 23 22 22 22 21 20 21 22 23 23 23 23 23 23 23 22 22 22 22 22 21 21 21
21 22 25 28 27 27 26 24 24 24 24 25 26 26 26 26 25 25 25 26 26 26 26 26 25 24 24 24 24 24 24 23 23 24 24 24 25 25 26 26 26 26 25 24 24 25 25 24 22 22 24 26 28 30 30 31 31 30 29 30 30 29 28 26 25 24 22 21 22 21 20 21 22 22 22 23 23 23 23 22 22 21 21 21 21 21 21 21
19 19 23 26 27 27 26 24 24 24 25 26 26 25 26 25 25 25 25 25 25 25 25 25 25 25 25 24 24 24 23 23 23 24 24 24 25 26 26 27 26 26 25 24 24 24 24 23 22 21 22 23 25 26 26 27 28 27 27 29 29 29 29 28 26 25 22 21 21 21 20 20 21 22 22 22 22 23 22 22 21 21 21 20 20 20 20 20
19 20 22 24 26 27 26 25 25 25 25 26 25 25 25 25 25 25 25 25 25 25 25 25 25 25 25 24 23 23 23 23 23 23 23 24 25 26 26 26 26 25 25 25 25 24 24 24 23 21 21 21 21 22 22 24 25 26 27 28 28 29 29 27 24 23 22 21 21 21 20 20 22 22 22 22 22 22 22 22 21 21 21 20 20 20 20 20
21 22 23 23 25 26 26 25 25 25 25 25 25 25 24 24 25 25 25 25 25 25 24 24 25 24 24 24 23 23 23 23 23 23 23 23 24 25 26 25 25 25 25 26 25 25 25 24 24 22 21 21 21 22 25 25 24 24 25 26 27 29 29 27 24 22 22 21 21 21 21 21 21 22 22 22 22 22 21 21 21 21 21 20 20 20 20 20
20 22 23 22 23 25 26 25 25 25 25 24 24 24 24 24 24 25 25 25 24 24 24 24 24 23 23 23 23 22 22 23 23 22 22 22 23 24 25 25 24 24 25 26 25 25 24 23 24 24 23 23 24 25 27 27 25 24 25 25 26 28 28 27 24 23 23 22 21 21 22 21 21 22 22 22 22 22 21 21 21 21 20 20 20 20 20 20
21 22 22 21 22 24 25 25 26 26 25 25 25 24 24 23 23 23 24 24 24 24 23 23 23 23 23 23 22 22 22 22 22 22 22 22 23 23 24 24 24 24 24 25 25 25 23 22 23 24 24 25 25 26 27 27 26 26 25 25 26 26 27 26 24 24 25 23 21 22 22 21 22 23 22 22 22 22 21 21 21 21 21 20 20 20 20 20
20 21 21 21 21 23 24 25 26 25 25 25 25 24 23 23 23 23 23 24 24 24 23 22 22 22 22 22 22 22 22 21 21 21 22 22 22 23 23 23 24 24 24 24 24 24 23 22 23 23 23 24 25 25 27 27 26 25 24 25 25 26 26 26 25 25 25 24 22 22 22 22 22 23 23 23 22 22 22 22 21 21 21 20 20 20 20 20
19 19 19 19 20 22 23 24 25 25 25 24 24 24 24 23 23 23 23 23 22 23 23 22 22 22 22 22 22 21 21 21 21 22 22 22 22 23 22 22 23 24 24 23 24 24 23 22 22 23 22 23 24 25 25 26 25 24 23 24 25 26 26 25 24 24 23 23 22 22 22 22 21 21 23 23 23 23 22 21 21 21 21 21 20 20 20 20
18 19 19 18 20 22 22 23 24 24 24 24 24 24 23 23 23 23 23 23 23 23 23 22 22 22 22 22 22 22 22 22 22 22 23 23 23 23 23 23 23 23 23 23 23 23 23 22 22 22 21 21 23 23 24 26 25 23 23 24 24 24 25 25 25 24 23 22 22 21 21 21 20 20 22 23 23 22 22 21 21 21 21 21 20 20 20 20
17 18 18 18 21 22 21 22 24 24 24 24 24 24 23 22 23 23 23 23 24 23 22 22 22 22 21 22 22 22 23 23 23 23 23 24 24 24 24 24 24 23 23 23 23 22 22 22 22 21 21 21 22 23 24 25 23 21 22 23 24 24 25 25 25 25 24 23 22 22 22 21 21 21 22 22 23 22 22 21 21 21 21 21 20 20 20 20
Height
811 810 809 807 806 805 804 803 801 800 799 798 796 795 794 793 792 791 791 790 790 789 789 787 786 785 784 784 783 782 781 780 779 780 777 767 764 767 768 769 770 772 774 774 776 777 778 779 779 779 783 784 785 786 784 785 786 793 802 810 812 809 806 800 799 799 799 804 807 804 802 805 810 811 805 801 805 805 806 807 805 805 807 810 813 816 819 822
810 809 808 807 806 805 803 802 800 799 798 797 795 795 793 792 791 790 790 789 789 788 787 786 785 784 783 783 783 781 780 778 777 776 768 762 763 766 766 768 769 771 772 773 774 775 777 778 777 779 783 785 784 783 785 786 788 795 802 809 808 802 796 789 790 792 794 800 803 801 800 802 806 808 804 807 815 810 811 813 809 811 812 813 815 817 820 822
809 808 807 806 805 804 803 801 799 798 797 796 794 793 792 791 791 790 789 788 787 787 786 785 784 783 783 783 782 781 779 777 775 769 761 759 761 763 765 767 768 769 770 771 772 773 775 775 775 778 783 787 784 783 787 788 790 792 797 808 803 792 790 785 785 788 790 794 799 800 798 801 804 803 804 810 817 814 814 813 811 816 816 815 816 817 820 822
809 808 806 805 804 803 802 800 799 797 796 795 793 792 792 790 790 789 788 787 786 786 785 784 784 783 783 782 782 781 779 778 771 761 758 758 758 760 763 765 767 768 769 770 772 773 774 774 776 777 784 789 783 782 788 788 789 790 793 800 792 785 790 787 784 786 787 790 795 797 799 804 806 805 807 810 817 818 813 808 807 812 813 814 815 816 820 822
808 807 806 805 803 802 801 800 798 796 795 793 792 791 790 789 789 788 787 786 785 785 784 783 783 782 782 781 782 780 780 781 769 757 758 758 757 759 761 764 766 767 769 771 772 773 775 775 776 780 785 788 786 785 787 783 784 790 790 787 783 783 790 787 783 785 786 789 793 797 801 804 806 808 809 811 816 816 807 802 803 805 808 811 813 816 820 822
808 806 805 803 802 801 800 798 797 795 794 792 791 790 789 788 787 786 786 785 784 784 783 782 782 782 781 781 781 780 780 778 764 756 758 757 757 758 760 764 765 767 769 771 771 772 775 775 779 784 785 786 787 786 783 778 779 791 789 781 779 780 786 786 783 785 786 789 795 797 798 798 804 810 811 812 811 805 799 798 801 803 806 809 813 815 819 822
807 805 804 802 801 800 798 797 796 794 793 791 790 788 788 787 786 786 784 784 783 782 782 781 781 781 781 781 781 781 781 772 758 756 758 757 758 758 761 763 764 768 768 769 770 772 774 777 781 782 784 786 785 782 779 777 777 787 788 780 778 777 782 783 783 785 785 790 793 792 796 799 805 809 810 811 806 800 797 796 800 804 806 810 814 816 819 822
805 804 802 801 800 798 797 796 794 793 791 790 789 787 786 786 785 784 783 783 782 781 781 780 780 780 780 781 780 781 780 766 755 756 757 757 758 758 762 763 764 766 766 768 768 770 773 777 779 778 784 784 779 778 775 778 783 785 785 779 775 777 780 781 783 786 786 789 789 791 798 801 802 805 810 810 803 798 797 797 802 806 808 812 815 817 819 822
804 803 801 800 798 796 795 794 793 791 790 788 787 786 785 784 783 783 782 781 780 780 780 779 780 779 780 781 781 780 770 757 753 756 756 757 758 758 761 761 763 765 765 767 766 769 772 774 774 772 779 778 774 775 772 782 789 780 778 776 776 780 781 782 785 787 788 789 789 794 801 801 799 803 811 810 803 799 797 800 804 807 812 814 816 818 819 821
803 801 800 798 796 795 793 792 791 789 788 787 786 785 784 783 782 781 781 780 779 779 778 779 779 779 781 780 781 778 760 752 754 755 755 757 757 758 759 759 761 762 763 765 765 767 767 767 767 764 770 772 771 773 771 778 778 770 773 774 776 780 781 784 788 789 790 791 790 797 804 802 799 807 817 814 806 801 799 804 807 809 814 815 816 818 819 822
801 799 798 796 795 794 792 790 789 788 787 785 784 784 783 782 781 780 780 779 778 777 777 778 778 779 780 780 782 774 756 752 755 754 755 756 756 757 757 758 759 760 762 763 763 763 762 762 761 764 771 770 769 771 770 768 766 766 773 779 782 784 790 793 793 791 792 794 792 795 804 804 804 814 820 815 811 807 804 807 810 812 814 814 817 818 819 821
800 798 796 795 793 791 790 789 787 786 785 784 783 783 782 781 780 779 779 778 777 776 776 777 778 779 779 781 778 764 753 754 756 755 756 755 755 756 756 758 758 758 759 760 761 759 761 761 762 771 772 766 771 774 769 762 762 768 773 788 795 791 798 802 800 794 792 797 792 793 809 815 816 821 818 810 810 811 810 810 811 814 815 815 817 818 819 820
800 798 796 794 792 790 789 787 786 785 784 783 782 782 781 780 779 779 778 777 776 776 776 776 777 778 780 777 764 754 753 755 756 757 757 755 755 755 756 758 757 758 758 758 758 757 761 762 763 769 765 766 773 768 763 759 762 772 776 788 801 805 806 802 801 798 794 798 790 794 821 829 822 819 814 807 807 811 815 815 814 814 815 816 817 818 819 819
800 798 795 793 791 789 788 786 785 784 782 782 781 781 781 780 779 779 777 777 776 776 776 776 778 779 780 770 753 751 754 752 754 754 755 755 754 755 757 757 758 758 758 757 757 757 761 761 762 765 761 764 765 759 763 765 767 779 786 791 802 814 813 799 799 800 799 800 789 797 824 829 820 817 813 809 807 810 816 819 818 816 815 816 817 818 819 818
799 797 795 793 790 789 787 785 784 783 782 781 780 780 780 779 779 778 778 777 776 776 776 777 778 778 780 769 751 749 751 750 751 750 752 754 753 755 756 757 757 757 758 757 757 758 759 760 763 768 764 758 759 767 776 775 775 782 796 808 807 810 811 799 795 795 799 799 791 801 822 825 820 816 812 811 811 813 816 821 822 818 815 816 817 818 819 818
798 796 794 792 790 788 786 784 783 782 781 780 779 779 779 779 778 778 778 776 776 776 776 778 778 779 780 767 751 748 749 749 748 748 750 751 751 753 754 755 756 757 758 757 757 758 758 761 763 763 763 762 767 776 782 785 787 783 793 812 810 806 812 807 796 789 791 797 798 805 818 824 819 814 812 811 814 817 819 822 823 820 815 815 817 817 818 818
798 796 794 792 790 787 785 784 783 781 780 779 779 778 778 777 777 778 777 777 777 776 777 778 778 780 774 759 753 752 748 747 747 747 748 749 750 751 752 755 755 756 757 757 759 759 759 762 764 763 764 769 772 777 790 798 796 787 788 801 803 801 808 811 803 792 789 797 803 805 812 818 814 812 813 811 811 816 821 823 823 820 816 815 816 816 817 818
797 795 793 791 789 787 785 783 782 781 780 779 777 776 776 775 776 777 777 777 777 777 779 779 779 783 773 758 756 754 748 748 746 746 748 748 749 750 752 753 753 755 760 762 762 761 763 763 765 771 773 774 775 781 795 796 789 787 788 794 801 801 803 806 803 794 791 799 805 807 813 816 813 811 812 811 809 814 820 821 822 821 816 814 815 816 816 817
797 794 792 790 789 787 785 783 781 780 779 778 777 775 773 774 775 776 777 778 778 778 778 777 776 778 770 758 753 750 746 746 746 746 746 746 748 750 751 752 753 757 766 772 769 764 765 768 772 780 782 780 778 781 786 783 779 783 784 789 799 805 803 800 797 790 790 801 807 807 813 816 814 812 811 812 811 813 818 820 821 821 817 814 814 815 815 817
796 794 791 789 787 786 785 783 781 780 778 777 775 774 774 776 777 777 777 777 774 770 768 769 770 767 762 755 749 748 746 745 746 745 744 745 746 750 751 752 756 762 769 775 773 764 764 777 783 782 782 778 775 776 776 775 776 780 782 785 792 801 802 797 795 790 786 801 810 805 810 815 813 812 811 813 814 815 819 821 821 820 817 815 814 815 815 816
795 793 791 788 786 785 784 783 781 779 778 776 775 776 777 777 779 777 774 771 766 761 762 761 762 761 756 751 749 747 747 748 746 743 744 744 744 752 757 756 765 772 770 770 771 765 767 783 785 777 775 772 771 772 772 774 777 780 782 784 788 794 796 792 792 791 786 799 812 807 812 817 813 813 813 813 815 816 817 819 820 818 816 816 814 814 815 814
794 793 790 788 786 784 783 781 780 779 778 776 775 776 775 772 773 771 768 770 763 756 758 757 758 758 749 747 747 744 748 753 751 745 742 743 746 756 760 760 770 775 769 768 773 776 780 785 778 771 770 770 771 770 771 775 778 781 781 783 790 791 795 797 793 790 789 801 813 811 815 820 814 812 814 814 815 815 816 817 818 819 817 816 814 813 813 815
794 791 789 788 785 783 782 780 779 778 777 776 775 774 772 768 768 767 767 772 767 756 755 755 757 757 749 746 743 742 749 754 755 750 741 745 751 754 759 765 770 773 771 773 778 786 790 782 770 767 768 770 774 771 772 777 778 780 780 785 792 789 795 806 800 793 793 799 809 811 817 822 817 815 815 815 816 816 816 815 815 819 820 816 812 811 811 813
792 790 789 786 784 783 781 779 777 776 776 775 773 771 768 766 767 767 767 772 772 760 752 750 751 752 748 744 741 744 750 749 751 750 741 746 753 754 758 764 769 774 773 773 777 784 784 771 761 765 768 770 775 774 774 781 782 780 777 782 789 786 785 793 793 793 797 802 804 808 825 830 821 821 821 815 816 818 816 814 814 819 820 816 813 810 810 811
791 790 787 785 783 781 779 778 776 776 775 773 771 768 767 766 765 766 768 777 779 763 751 749 749 748 743 740 741 743 748 748 746 745 739 742 751 755 759 759 766 776 775 772 776 781 777 763 758 766 769 769 775 776 774 779 784 782 775 773 777 781 784 787 788 794 812 823 809 804 831 841 824 821 822 816 817 819 817 815 816 819 819 817 815 812 810 810
790 789 786 784 782 780 778 776 775 775 774 771 769 768 767 767 765 764 770 786 787 766 755 754 752 749 743 742 741 740 753 754 741 738 739 741 744 749 760 761 762 771 771 769 773 775 769 759 758 765 768 769 774 775 769 771 783 785 771 762 768 776 785 791 789 798 818 823 805 796 818 839 833 823 818 816 819 819 817 817 817 818 818 816 815 813 811 810
790 787 785 784 781 780 778 776 776 775 773 771 767 767 766 765 765 763 775 798 793 766 758 757 752 749 745 743 739 747 764 757 740 739 738 740 741 743 760 766 764 766 761 765 778 772 761 759 762 763 766 770 774 774 764 763 779 780 760 756 768 774 782 787 787 795 802 802 803 798 804 830 841 825 814 814 820 822 820 819 819 817 816 813 813 811 810 810
789 786 784 783 781 780 778 777 777 773 772 770 766 767 766 764 765 765 785 810 793 762 757 755 748 745 742 741 741 749 756 750 751 750 734 737 742 745 761 764 764 766 757 768 785 770 754 759 762 761 767 771 769 764 756 757 770 765 750 755 763 766 773 778 784 792 791 800 822 812 798 826 841 822 813 818 822 825 821 819 818 816 814 813 811 811 811 810
788 786 783 781 780 780 778 777 775 772 770 768 766 766 764 762 764 770 793 806 783 758 754 752 748 746 744 745 747 749 748 748 755 749 735 739 742 744 759 759 758 765 759 764 775 764 752 750 750 755 765 766 759 752 748 754 761 750 745 753 758 764 769 772 783 791 791 807 828 814 797 820 837 824 820 826 823 819 816 814 814 812 811 811 809 811 814 813
786 785 782 780 779 778 777 775 772 770 768 766 767 764 761 764 770 788 807 799 777 762 754 752 752 749 749 754 755 753 751 751 749 744 743 745 743 745 750 749 752 762 762 761 763 758 748 740 740 747 753 751 747 745 743 746 748 743 746 754 762 772 773 777 788 791 803 818 816 804 794 807 830 829 819 817 809 802 805 809 810 808 807 807 806 808 813 815
784 783 781 779 778 778 777 774 769 769 768 767 767 761 763 770 779 803 811 785 772 768 756 755 754 749 751 758 760 756 754 753 747 748 753 750 751 754 755 756 759 765 769 765 760 754 748 746 745 740 737 738 742 745 741 739 739 744 753 758 772 785 787 800 809 803 818 826 803 792 791 798 821 824 808 800 793 789 796 800 802 804 803 802 803 804 807 810
782 781 779 777 777 776 775 772 768 769 768 767 766 762 771 784 791 804 798 776 776 774 761 760 757 751 753 755 758 757 755 755 749 749 755 756 760 760 761 766 767 774 780 772 765 760 753 750 745 738 732 732 743 752 748 743 742 749 758 763 782 803 812 825 828 816 819 812 787 783 792 801 811 804 792 791 789 787 790 790 792 797 800 800 801 802 803 805
779 777 776 775 774 773 771 769 768 769 768 767 767 766 777 798 803 796 788 781 780 770 759 759 755 751 754 757 759 755 754 756 751 750 753 756 762 761 759 759 759 772 780 773 772 771 763 752 742 743 739 730 739 755 759 756 752 754 761 768 784 805 823 833 826 816 813 800 781 778 792 807 807 793 785 786 785 784 784 785 788 792 796 798 799 800 801 802
776 774 774 772 771 770 768 768 768 769 768 768 771 775 787 806 802 787 785 782 773 762 759 761 758 755 755 757 759 754 755 757 752 753 755 757 765 765 761 759 756 761 768 772 775 774 778 771 750 745 743 734 736 745 751 753 754 754 752 760 773 783 800 815 811 806 805 800 793 790 800 812 810 799 786 779 779 781 783 784 786 790 793 795 798 799 800 800
774 773 772 770 769 768 766 768 768 769 770 771 777 787 799 807 797 787 786 777 768 766 764 760 761 765 764 758 756 754 756 759 754 754 759 762 770 769 764 764 760 757 764 776 775 770 779 774 747 735 733 730 735 735 735 745 756 754 747 757 767 764 771 784 786 782 786 801 810 808 812 812 803 797 786 778 780 782 784 786 788 793 794 796 800 800 799 800
773 771 770 769 767 766 765 767 767 769 771 775 787 797 798 796 789 784 780 771 770 772 770 769 770 777 778 770 765 761 756 758 758 759 763 766 771 772 767 765 762 759 763 772 773 773 781 771 746 737 733 725 729 731 730 743 756 755 755 762 757 747 754 770 778 771 776 809 824 817 821 816 802 798 790 784 786 785 786 789 790 794 795 797 800 800 800 800
772 770 769 767 765 764 765 766 767 770 772 780 795 798 789 784 778 775 771 767 769 769 774 783 782 782 788 783 777 771 763 764 765 768 774 775 774 774 770 766 762 760 760 764 767 769 776 774 752 743 744 729 720 728 730 732 742 755 763 757 745 746 752 763 781 784 793 824 832 821 827 826 816 813 802 794 795 792 791 793 793 795 796 799 801 801 802 803
771 769 768 764 762 763 764 766 767 770 774 784 796 791 782 779 773 767 766 766 768 769 778 790 785 781 787 788 785 777 770 775 776 775 781 783 781 775 772 770 763 759 756 757 764 762 766 776 760 742 746 736 722 734 745 736 733 744 752 746 748 767 771 768 780 791 809 836 837 828 829 826 822 818 808 804 805 803 800 797 798 800 800 803 804 804 806 806
771 772 769 761 760 761 763 765 766 771 780 790 797 789 779 776 769 763 763 764 767 772 780 786 782 781 784 785 787 780 774 780 782 781 783 787 785 775 769 771 766 760 756 754 763 762 759 775 772 748 740 739 735 745 758 754 740 738 745 746 750 763 769 770 773 781 805 831 838 838 836 827 819 813 809 812 814 814 812 807 805 806 806 808 808 808 809 810
772 775 770 759 758 762 761 763 767 775 784 789 790 784 776 773 769 763 761 762 767 772 777 780 780 784 785 782 783 780 776 779 782 784 784 783 784 776 769 770 767 762 758 754 761 762 758 771 779 759 742 745 753 754 755 756 752 752 758 760 759 759 761 765 767 769 788 816 832 840 841 831 817 809 811 815 814 814 814 811 811 810 809 810 810 809 810 810
773 779 771 757 758 761 760 767 773 777 784 785 783 779 774 771 770 767 762 760 765 768 770 774 778 783 784 782 782 779 777 781 782 784 784 782 784 782 772 767 767 764 761 760 764 766 766 772 778 770 759 758 757 748 742 745 749 755 761 761 760 761 764 775 780 775 779 799 815 825 837 835 818 808 809 810 810 809 808 810 812 812 811 811 811 811 811 810
777 781 768 757 759 759 761 773 777 776 781 782 778 775 771 769 770 770 766 763 766 766 766 771 776 780 781 781 780 778 778 784 784 784 784 782 783 781 772 765 764 764 764 769 770 766 766 772 778 776 768 762 754 743 739 741 741 747 753 754 756 757 761 776 787 784 785 795 799 808 831 836 817 806 806 806 806 806 806 809 811 813 813 813 813 814 814 813
779 777 762 755 759 758 765 779 780 778 779 775 770 770 769 771 772 772 770 770 770 769 769 772 774 777 779 777 779 779 780 784 786 783 782 781 778 774 769 764 763 764 766 772 772 764 765 775 781 778 767 757 749 741 740 739 742 751 755 752 756 759 758 763 770 776 789 801 801 811 834 836 818 808 806 804 805 806 807 809 811 814 815 815 816 816 816 816
779 775 763 758 758 758 769 781 781 780 777 771 772 773 771 772 773 774 776 775 773 773 774 774 773 774 776 775 779 782 782 786 788 784 782 782 777 770 766 764 764 766 768 772 771 768 773 779 783 786 783 775 770 766 764 758 755 762 763 756 756 756 754 758 762 771 789 800 798 812 835 834 817 811 809 806 808 809 809 809 810 813 815 816 817 817 817 818
778 776 768 761 757 760 770 774 774 777 775 774 777 778 776 776 774 775 776 775 773 774 776 775 772 772 774 777 781 783 782 786 789 787 784 782 777 770 767 766 767 767 766 766 765 767 775 779 781 793 802 803 803 799 791 781 770 768 766 760 758 755 753 760 766 776 793 800 797 809 828 829 818 814 813 811 810 812 812 811 811 812 814 816 817 817 818 818
781 781 777 769 763 764 769 768 768 774 776 777 780 780 780 782 778 774 774 776 775 774 776 776 773 774 777 780 785 788 786 786 788 789 790 788 782 775 771 769 769 768 766 763 762 766 776 779 779 789 797 799 798 791 780 776 775 773 771 766 762 757 754 760 770 780 790 799 805 807 812 820 820 815 815 814 812 814 815 814 815 814 814 816 817 818 818 818
783 785 784 783 777 771 771 770 770 774 776 778 781 782 783 784 783 779 776 778 778 776 778 779 778 781 784 785 788 791 790 788 789 791 792 791 785 779 774 771 771 770 767 765 765 769 780 785 781 783 786 785 783 778 770 770 773 773 773 771 766 762 759 762 772 780 783 795 812 810 801 810 816 811 811 812 811 812 814 815 816 815 815 817 817 818 819 819
785 785 782 783 784 780 777 775 773 774 776 777 779 782 785 788 789 788 783 780 779 778 782 787 786 785 787 786 789 794 794 794 795 795 793 792 788 784 781 776 774 773 771 771 770 772 785 793 786 782 783 779 776 773 768 768 770 773 777 776 771 768 767 766 772 777 775 783 801 806 801 806 808 803 805 807 806 809 811 812 814 815 816 818 818 818 819 821
786 786 781 779 782 782 779 775 773 775 777 778 780 783 787 790 792 791 787 785 786 783 785 793 793 789 787 786 790 796 798 800 803 799 795 794 792 791 791 787 781 777 776 778 776 775 787 796 790 786 786 781 777 775 769 767 771 777 781 779 774 772 770 769 773 775 773 779 790 798 803 806 804 802 801 801 803 805 808 811 814 816 818 819 818 819 820 821
790 791 788 784 784 781 777 776 776 779 779 780 784 785 785 790 792 790 788 790 795 791 787 793 794 790 789 789 792 798 798 798 801 799 794 796 795 794 795 794 788 782 781 782 781 778 785 794 792 789 789 787 783 779 774 772 775 782 785 781 777 774 772 775 780 781 784 792 796 799 807 811 809 804 802 802 804 806 810 814 815 816 817 818 819 820 820 821
792 791 789 791 789 782 780 779 778 782 784 783 786 786 786 790 791 790 790 789 792 793 791 793 794 791 791 792 793 796 794 791 793 792 789 792 793 792 792 790 788 788 788 787 785 784 786 792 794 794 798 797 791 787 782 774 775 784 789 786 783 780 777 777 779 780 785 796 803 807 812 813 809 805 804 806 807 809 813 815 815 816 816 817 820 820 820 821
790 789 787 790 791 786 786 784 781 784 787 784 783 784 788 791 788 789 794 791 787 789 790 790 792 794 797 798 796 793 789 788 788 786 785 786 785 786 787 786 785 789 791 790 791 792 792 795 798 803 808 805 798 792 783 777 787 800 797 789 786 782 778 777 778 778 779 786 798 804 804 803 803 802 804 807 809 811 813 814 815 816 816 817 820 821 821 823
Wind_Speed
15 15 15 15 15 14 14 14 14 14 14 15 15 15 15 15 15 15 15 14 14 14 14 14 14 13 10 9 10 11 14 15 14 10 9 12 11 12 10 13 15 13 12 10 10 9 8 9 11 12 8 6 4 4 6 4 2 2 2 0 2 2 2 3 4 4 5 7 8 6 4 8 8 3 2 2 5 2 10 8 9 13 13 15 21 28 30 31
15 15 15 15 15 15 15 15 15 15 15 15 15 15 15 15 15 15 15 15 14 14 14 14 14 12 10 8 9 10 14 15 13 12 16 14 7 11 16 16 14 13 15 15 16 13 9 8 10 9 5 4 4 5 8 4 2 2 2 1 2 3 2 4 6 7 7 8 9 6 5 8 9 6 2 3 1 4 13 10 12 15 15 19 23 26 28 30
16 15 15 16 16 16 16 16 16 16 16 15 16 16 16 16 15 15 15 15 15 14 14 14 13 12 9 8 8 9 12 12 7 9 9 8 12 15 18 19 13 12 19 20 19 18 14 11 12 8 4 4 3 6 7 3 2 2 2 1 4 3 2 5 7 8 8 10 11 7 6 7 8 4 2 7 6 7 13 11 14 17 18 19 19 23 26 27
15 15 15 15 15 16 16 16 17 17 17 16 16 16 16 16 16 16 15 15 15 14 14 13 13 11 8 7 6 8 9 5 2 4 2 1 10 17 20 21 15 12 18 19 16 18 15 10 9 7 4 5 3 5 6 4 3 2 3 3 4 3 3 6 7 8 9 9 9 8 7 8 8 3 1 10 10 7 10 12 16 20 21 20 18 21 24 23
15 15 15 15 15 15 16 16 17 17 17 17 16 17 17 17 16 16 15 15 15 14 14 13 13 10 7 6 5 6 5 1 1 1 4 3 4 15 23 21 17 14 15 16 13 14 13 8 6 6 5 5 3 4 5 6 5 2 4 5 4 4 4 8 9 9 10 9 8 8 8 8 8 4 1 6 9 7 8 12 18 20 21 21 20 21 21 21
15 15 15 15 15 15 15 16 17 17 17 16 16 16 16 17 16 16 16 16 15 15 13 12 12 8 5 4 3 3 1 1 4 2 4 3 2 15 23 21 18 15 15 15 11 9 8 6 5 6 6 4 5 5 4 7 7 3 4 6 5 6 7 9 11 10 9 10 9 8 6 6 9 8 3 4 6 7 7 13 19 19 22 24 22 21 19 18
15 16 15 15 16 16 16 16 17 17 17 17 16 16 16 16 16 16 17 17 15 14 13 12 10 6 4 2 1 2 1 4 9 5 3 0 6 15 22 20 17 15 17 15 10 7 5 6 7 6 6 5 6 6 5 8 9 5 4 6 7 8 11 11 11 9 8 9 8 7 6 5 8 9 5 3 4 5 7 14 19 21 25 24 20 18 17 18
16 16 16 16 16 16 16 16 17 17 17 17 16 16 15 16 17 18 18 17 15 13 11 10 7 3 3 2 1 1 1 8 8 4 3 6 10 16 21 19 17 17 18 16 12 9 6 7 9 7 6 6 5 4 6 8 7 7 4 6 8 9 12 11 10 9 8 7 7 9 7 5 6 6 3 2 5 6 9 16 20 21 22 20 17 17 17 17
17 17 17 17 17 17 17 16 16 16 16 16 15 15 16 17 18 18 18 17 15 12 10 8 4 1 2 1 1 2 3 6 6 6 7 9 12 18 22 20 21 19 17 17 16 11 6 6 9 9 5 5 6 4 7 8 5 9 6 6 9 12 13 12 10 9 8 6 7 10 7 5 6 6 4 2 1 6 12 17 19 20 18 17 16 16 16 15
18 18 18 18 18 18 17 17 17 16 16 15 15 14 16 17 18 18 17 15 13 10 8 6 2 2 1 1 1 1 4 3 6 8 9 10 13 20 23 21 24 22 16 15 16 12 9 9 7 6 4 4 5 4 8 8 4 7 6 7 12 14 12 10 11 8 7 6 7 9 7 5 5 5 1 2 5 2 16 18 17 19 17 17 17 15 17 17
21 21 20 19 19 18 18 18 18 17 16 15 15 15 15 16 17 17 15 13 11 9 6 5 2 3 1 0 2 3 3 3 8 10 10 11 15 21 23 22 24 25 18 11 15 19 17 14 8 3 4 3 3 4 7 5 3 5 8 8 10 12 9 4 6 9 7 5 6 8 9 5 5 5 3 4 6 3 12 19 17 17 16 16 17 15 15 17
24 24 23 21 21 20 19 19 19 18 16 15 15 14 14 15 16 15 13 12 9 6 4 4 4 7 2 1 5 9 5 5 4 6 8 8 10 15 20 21 23 26 22 12 15 24 21 16 11 5 5 3 3 3 3 4 1 10 12 9 10 11 7 0 2 7 7 5 6 9 8 4 5 4 3 5 5 2 3 14 18 16 13 14 15 13 12 15
24 24 23 23 23 22 21 20 19 17 16 15 13 12 12 13 13 12 12 11 7 4 2 3 8 7 2 1 9 14 9 6 7 6 10 9 5 8 16 18 19 22 23 18 18 23 21 18 13 7 8 6 4 3 1 4 2 12 11 9 7 5 3 6 3 5 5 6 8 5 4 3 3 5 4 4 9 7 1 5 13 14 12 12 12 11 10 13
24 23 22 22 22 22 22 21 19 16 14 14 12 11 10 9 11 11 11 9 6 3 1 7 10 6 2 5 14 14 13 14 15 12 15 15 8 9 15 16 16 18 21 23 22 18 17 17 12 7 7 6 4 2 3 3 3 10 8 6 7 2 3 7 6 8 6 5 7 3 3 5 4 5 6 4 7 12 8 2 6 12 12 11 12 10 9 11
24 23 22 21 21 22 22 21 18 15 13 12 11 11 8 6 8 10 9 7 5 2 4 8 9 4 2 8 14 13 11 9 12 12 16 20 13 9 15 18 19 18 18 21 21 16 15 14 10 6 6 5 1 3 3 3 3 7 6 3 4 4 5 6 8 11 9 7 6 2 3 4 2 5 7 5 5 8 12 6 5 9 14 13 12 10 9 10
24 23 22 21 21 21 21 20 18 15 13 12 12 11 8 6 6 7 7 5 4 3 7 7 6 3 1 5 11 12 8 4 7 9 15 22 16 12 16 18 18 18 18 20 19 17 16 11 6 5 3 3 1 3 3 4 2 4 5 5 6 6 6 4 7 10 9 9 6 2 4 3 2 5 6 7 8 6 9 9 7 9 13 14 10 10 10 10
24 24 22 21 20 21 20 19 17 15 13 13 13 13 9 7 6 3 5 5 4 4 5 2 2 3 3 8 9 8 5 6 8 8 14 21 16 14 16 12 10 14 16 15 15 13 10 7 3 3 1 1 1 4 3 2 2 3 2 5 7 9 9 6 7 8 8 9 6 4 4 4 5 8 8 8 10 10 9 10 9 7 10 13 9 10 10 10
24 25 23 21 20 20 19 18 17 15 15 15 16 16 11 7 7 2 2 3 3 1 2 2 0 2 3 7 5 5 8 9 12 10 12 18 18 18 17 9 6 9 8 6 8 6 5 3 1 1 1 2 1 3 4 4 4 4 4 4 5 8 11 10 8 8 11 9 6 7 6 6 10 10 9 7 9 11 8 8 6 6 9 13 10 10 10 10
24 24 24 22 20 18 18 18 18 17 18 17 18 18 11 4 5 4 2 2 2 1 3 2 3 1 4 7 7 11 13 12 13 11 12 14 17 19 17 11 6 6 5 1 4 4 2 1 2 2 3 4 5 5 6 6 2 1 1 4 5 5 5 7 6 8 13 8 5 8 7 7 11 11 10 8 8 10 8 6 5 6 7 11 10 9 10 10
23 24 24 23 21 19 18 18 19 19 19 20 20 15 6 1 1 1 1 2 4 6 6 5 6 4 8 9 10 13 10 11 10 9 14 14 13 15 11 7 4 4 4 3 3 3 2 3 3 5 5 7 7 6 7 8 5 3 4 0 7 6 4 6 6 9 12 7 3 6 7 8 10 9 9 8 8 10 9 8 7 6 6 9 10 10 11 10
23 24 23 23 23 20 19 19 18 19 19 21 19 9 1 1 2 2 1 4 8 11 11 9 9 10 13 12 14 15 5 6 7 8 13 12 12 12 6 4 5 3 5 5 3 1 3 3 6 7 7 8 7 7 8 8 6 4 5 3 5 7 5 8 9 11 9 4 2 5 7 7 8 8 7 7 10 10 10 9 7 7 7 7 9 11 12 8
23 23 23 23 23 22 21 20 20 19 18 19 14 2 4 6 5 5 3 3 7 9 11 11 9 11 17 19 23 18 6 5 5 6 8 7 9 8 4 3 5 4 5 4 3 1 2 4 7 8 8 7 7 8 8 8 6 5 5 1 3 6 6 6 8 12 7 1 3 7 6 5 5 7 7 5 5 5 5 3 0 3 5 7 9 12 12 8
22 23 24 22 23 22 20 20 22 18 13 15 13 6 8 11 11 10 4 1 7 6 6 7 7 7 12 15 14 8 5 4 4 4 6 6 5 5 6 4 5 4 4 4 4 4 4 6 9 9 7 7 9 9 8 7 4 5 4 2 4 9 10 6 8 11 6 2 5 8 6 3 2 4 6 4 2 4 4 3 3 4 4 4 7 9 11 10
22 23 23 23 24 21 19 21 16 10 12 18 16 10 11 13 13 12 5 0 5 5 6 8 6 5 10 11 7 1 2 3 3 5 7 8 5 4 5 5 5 5 4 5 5 5 6 8 9 9 8 8 9 9 8 5 4 6 5 4 7 11 10 9 13 11 6 4 5 9 6 2 0 2 4 4 3 3 3 4 3 3 6 4 2 5 8 9
22 23 23 24 24 22 21 16 6 9 19 18 12 12 18 13 8 7 5 1 3 4 5 5 3 4 8 9 6 2 1 2 3 5 8 10 7 3 3 3 4 5 6 6 6 5 8 10 7 9 10 9 8 9 8 6 4 6 5 8 11 10 5 8 15 11 5 3 6 6 4 2 2 3 5 5 6 5 4 4 5 4 4 5 4 3 4 7
21 22 23 24 24 24 19 6 6 17 19 10 8 16 20 14 7 5 5 2 2 4 2 1 0 3 4 4 2 2 1 4 5 8 9 10 10 4 2 2 2 6 7 6 4 2 7 10 7 9 11 9 8 8 8 8 5 4 7 11 13 13 9 11 15 11 4 4 9 8 3 1 2 4 6 7 7 8 6 5 5 5 4 5 5 4 3 5
20 20 23 23 23 24 14 4 14 19 9 6 14 19 19 18 14 8 5 2 2 3 2 1 1 2 3 3 2 3 1 4 3 6 9 11 9 4 2 3 2 4 4 3 3 3 7 9 7 10 11 8 7 7 8 8 7 5 7 12 16 16 17 18 15 8 3 4 7 8 2 4 3 4 6 8 9 9 9 8 7 6 7 7 7 6 4 6
20 20 22 21 22 22 12 9 15 12 7 13 19 18 18 20 14 5 5 1 3 3 2 1 0 2 3 3 2 2 2 1 2 3 9 14 10 4 3 5 3 4 3 2 4 6 6 9 9 10 9 7 6 8 9 7 6 7 5 11 16 17 19 19 12 5 4 6 6 7 3 4 2 2 5 7 8 11 12 13 12 10 10 10 8 7 5 5
20 19 20 21 22 19 12 12 13 10 12 18 19 20 22 17 7 4 4 1 2 3 1 1 0 2 2 0 1 3 2 1 2 4 6 11 7 3 3 5 3 4 4 5 6 6 7 8 10 9 7 7 8 10 9 7 7 8 5 9 10 13 15 15 9 3 4 5 5 10 6 4 2 2 4 6 8 12 13 12 12 13 12 11 10 6 4 7
20 19 19 20 19 15 14 18 15 10 16 20 22 25 21 11 4 5 3 2 2 4 1 0 1 1 3 3 1 3 4 3 3 2 3 3 1 2 1 3 2 2 4 4 6 7 8 6 6 7 7 9 9 9 8 9 9 5 4 6 6 8 9 6 3 1 2 1 5 13 10 5 2 3 6 6 6 11 12 10 12 14 14 15 12 9 6 8
20 18 19 19 18 15 12 13 12 12 17 22 26 21 11 4 4 4 2 1 1 3 2 1 2 1 3 4 2 3 3 4 2 6 4 2 2 1 1 1 1 2 4 4 4 5 5 4 4 4 7 8 9 8 7 8 9 4 3 4 5 4 4 4 0 1 2 2 7 13 11 5 3 4 9 10 5 9 13 13 15 16 16 15 12 11 12 11
21 18 18 17 18 18 13 12 13 16 20 23 21 11 4 4 3 1 1 1 2 3 2 2 2 3 3 2 1 3 2 3 3 5 5 3 2 3 3 2 2 1 2 3 2 4 4 4 5 4 4 6 6 6 5 5 4 3 4 4 5 3 3 4 4 4 4 4 7 12 10 3 3 4 9 13 8 9 12 11 14 15 13 12 10 11 12 11
20 18 16 15 17 20 19 18 17 18 21 21 14 4 5 4 2 2 2 2 2 3 2 2 4 4 3 2 1 4 3 3 2 3 4 3 2 3 4 4 5 3 1 2 2 3 3 5 5 4 3 3 6 4 4 4 2 4 5 4 5 5 5 5 5 4 4 4 3 11 10 3 3 3 6 12 9 8 11 9 10 12 13 13 11 10 10 8
19 15 14 14 16 19 19 17 17 18 18 14 7 4 6 4 2 4 3 2 3 4 4 3 7 7 1 3 2 2 2 1 2 4 3 2 3 1 3 3 3 4 2 1 2 2 2 4 5 6 4 3 4 6 6 3 1 3 4 5 5 5 5 5 5 4 5 3 5 7 5 3 2 3 3 8 7 6 9 7 7 8 9 10 9 9 8 5
17 13 12 14 15 16 14 13 14 14 8 6 5 4 5 1 3 3 2 3 4 6 6 5 8 8 3 2 3 3 4 1 1 3 3 3 3 1 1 2 3 0 2 1 2 1 1 4 5 4 5 5 4 4 5 4 1 3 2 6 3 5 5 3 5 5 5 5 3 2 0 1 2 3 6 5 8 7 8 7 7 7 7 8 8 8 7 5
16 12 9 12 15 13 11 11 12 6 2 5 5 3 1 2 3 2 2 4 3 4 5 6 8 6 5 4 5 8 9 5 3 4 2 3 5 6 4 3 7 6 3 2 1 1 2 4 6 5 2 6 7 4 5 5 2 2 1 2 5 5 6 3 3 2 5 6 1 1 2 2 1 1 7 5 7 8 8 8 8 8 7 8 7 7 6 4
16 11 7 11 15 13 11 13 10 2 5 5 4 1 2 2 3 3 2 3 1 2 4 4 4 3 4 4 5 8 9 7 7 5 3 3 4 6 6 3 7 9 5 1 1 1 1 3 7 3 2 8 7 5 4 2 4 3 1 4 4 2 4 3 2 2 5 5 1 2 2 1 0 0 3 2 6 8 8 8 7 7 7 5 4 3 3 4
15 9 7 12 15 12 11 13 9 5 5 3 1 3 2 2 4 2 1 3 1 4 5 3 1 2 4 3 4 6 7 6 6 4 4 5 2 3 6 4 6 9 8 4 1 1 2 1 6 2 2 6 1 6 2 3 1 4 2 2 0 2 1 0 2 3 3 4 2 2 1 1 0 2 3 2 5 6 7 9 8 7 6 4 4 6 7 9
9 5 5 9 10 8 11 14 8 5 4 1 1 2 2 2 3 1 2 2 2 4 4 0 1 2 3 2 1 4 5 5 4 3 3 3 2 2 5 4 5 10 10 5 2 1 2 2 3 6 4 2 3 4 3 3 4 1 3 3 1 3 3 2 2 4 5 4 3 2 1 1 2 2 3 4 6 5 4 7 9 8 9 7 6 6 6 7
2 3 3 7 6 7 13 12 6 5 2 2 2 2 3 3 3 3 0 3 3 2 2 1 2 3 2 2 1 1 4 4 3 2 1 1 2 3 5 4 5 9 10 5 4 2 3 3 2 7 5 1 2 0 5 5 2 1 3 3 1 1 0 2 1 1 5 5 4 4 1 2 3 1 4 7 8 4 2 7 9 8 9 9 7 7 6 6
2 2 4 5 3 11 14 7 3 3 2 2 2 3 3 2 2 5 4 4 3 2 3 3 2 1 1 2 2 2 2 3 2 2 1 2 2 1 4 4 5 7 7 4 5 3 2 2 1 4 4 1 2 4 4 7 5 4 2 2 2 2 2 2 1 2 3 4 5 5 4 1 3 1 5 9 8 6 6 9 10 8 10 10 9 10 8 7
2 0 5 6 4 14 11 4 1 2 2 3 4 2 2 2 3 6 6 5 4 0 1 3 4 2 2 1 2 3 2 3 2 2 1 2 2 1 4 6 5 5 2 1 2 1 1 1 1 2 3 3 5 5 2 3 5 4 1 1 1 2 4 4 2 2 3 4 3 4 3 2 2 3 4 9 8 6 7 9 10 9 8 9 10 10 10 9
1 4 8 9 6 12 7 3 3 2 2 4 3 1 3 2 3 6 6 5 4 3 2 2 3 2 1 0 2 3 3 2 2 1 0 1 2 3 5 6 6 5 4 2 3 3 1 1 2 3 4 4 4 5 7 6 6 4 2 2 2 1 2 5 4 3 3 3 3 4 3 2 1 2 3 8 8 7 8 9 10 9 7 8 9 8 8 9
1 4 6 7 4 7 5 1 3 3 3 1 3 3 3 3 3 4 5 5 3 2 2 2 1 1 1 2 2 3 3 3 2 3 2 1 1 4 5 7 6 4 2 1 1 2 2 1 2 3 4 5 6 6 8 8 5 2 3 4 3 2 1 3 3 4 3 2 4 5 3 2 3 3 4 8 9 8 8 9 9 9 8 8 7 7 7 8
2 2 4 5 3 3 3 3 4 3 1 3 4 3 3 2 3 4 3 4 4 4 3 3 2 3 3 4 4 5 6 4 2 5 5 3 2 3 6 7 7 5 3 2 1 1 1 1 2 4 3 2 2 2 2 4 3 2 4 6 6 5 5 3 4 4 2 3 4 5 5 4 4 5 5 7 9 8 8 8 8 8 9 8 7 6 6 7
2 1 3 6 4 4 1 2 4 4 3 3 3 2 3 1 2 4 4 4 5 5 4 5 5 4 3 4 4 5 6 4 3 4 4 5 4 4 6 8 9 11 10 8 5 2 2 3 3 4 4 4 5 5 4 2 1 3 6 10 9 6 5 4 5 3 4 5 3 1 10 13 9 9 9 8 8 9 8 9 8 7 9 9 7 7 6 7
2 1 2 3 3 3 4 4 5 5 2 3 2 1 3 4 3 4 4 4 4 5 5 5 7 5 4 4 4 4 5 4 5 4 2 4 3 4 7 8 11 15 13 9 8 4 3 4 7 4 0 2 4 6 5 2 3 4 7 11 11 9 6 5 4 3 7 6 2 3 12 17 13 12 11 9 9 9 8 8 9 8 9 9 8 9 9 8
2 1 1 2 1 1 2 3 4 5 5 4 2 2 5 8 6 3 4 4 5 6 4 4 7 7 5 4 3 2 4 4 5 4 3 4 4 5 7 7 9 13 11 7 6 3 5 3 7 7 6 5 4 5 5 4 5 7 9 10 11 10 7 4 4 7 7 5 5 9 13 15 14 13 12 10 9 9 9 9 9 9 9 9 10 11 11 10
3 2 3 3 1 2 2 2 3 5 6 4 3 4 5 7 6 4 3 4 5 5 4 4 5 7 8 7 5 3 4 3 2 4 3 4 4 3 4 5 6 9 8 6 5 3 4 2 7 7 6 7 9 9 7 6 7 9 10 10 10 9 7 5 3 5 5 5 11 14 11 9 7 7 11 11 10 8 8 9 9 9 10 10 10 11 12 11
2 1 3 4 3 4 3 4 3 4 4 4 4 4 4 5 5 3 3 4 2 4 4 4 4 6 7 8 6 4 3 2 1 2 3 4 4 2 2 2 3 6 7 5 5 4 4 2 5 6 4 6 10 12 11 8 7 9 10 11 10 9 7 7 7 8 9 9 12 14 11 5 2 3 6 8 9 9 9 10 10 9 10 10 11 11 12 12
4 4 3 1 2 4 4 4 3 4 3 3 3 3 3 4 5 4 3 2 3 2 3 4 5 5 6 7 7 4 5 4 3 3 3 2 1 1 1 0 0 3 5 4 4 5 4 2 4 5 4 4 8 11 11 7 7 10 11 11 9 7 4 2 4 7 10 13 13 12 8 5 3 6 7 5 8 10 9 9 9 8 9 11 11 11 11 11
9 5 3 2 1 3 4 4 3 4 1 2 2 4 4 4 4 6 3 2 2 4 4 5 6 5 4 6 5 4 5 5 4 5 4 2 2 0 1 2 4 4 3 3 4 4 3 3 2 3 2 4 8 9 7 5 6 7 7 7 6 5 2 3 5 9 14 16 13 9 8 7 9 11 11 10 11 10 8 8 9 9 10 11 11 11 11 10
Wind_Direction
343 341 340 338 337 336 333 331 329 328 328 327 326 325 324 324 324 324 323 324 324 323 324 323 321 320 327 335 330 326 322 316 314 302 245 253 253 226 205 177 178 175 170 181 190 192 190 205 218 206 200 197 204 212 167 143 156 139 121 174 269 237 210 185 177 163 133 135 157 183 172 134 125 147 250 27 6 104 118 112 120 114 116 123 131 138 142 146
341 340 339 338 337 334 332 329 327 326 326 324 324 322 321 321 321 322 323 324 323 321 324 323 321 321 327 336 334 331 325 318 310 283 253 250 242 210 198 180 176 185 191 196 198 193 179 199 209 196 190 195 218 189 163 166 178 166 158 154 248 232 182 169 157 145 141 143 155 178 163 136 132 145 182 107 56 134 122 127 128 117 119 126 135 138 139 143
339 339 338 338 336 333 331 329 328 325 323 322 320 319 318 319 320 320 322 324 323 323 324 322 322 321 328 338 339 338 326 323 304 267 266 250 230 212 198 195 188 187 198 197 196 196 193 198 196 185 187 217 231 181 168 179 209 189 135 174 242 217 122 124 138 143 140 142 150 158 150 133 129 132 146 137 149 152 137 143 137 128 134 138 141 140 141 144
338 338 337 336 335 332 330 328 327 324 322 320 318 317 316 317 318 319 320 323 326 326 324 323 323 320 331 339 340 340 324 331 296 252 32 35 225 203 193 196 186 184 198 197 197 203 209 216 205 193 197 227 229 187 185 182 193 182 153 200 218 182 121 116 129 134 131 137 144 142 141 130 115 96 150 147 149 158 154 150 142 139 142 143 144 145 147 148
338 336 335 334 332 331 329 326 324 322 321 319 318 316 314 315 316 318 319 322 324 323 323 322 321 323 332 339 345 338 334 45 240 256 58 28 222 190 185 182 176 178 191 197 203 210 224 245 233 214 218 231 221 198 194 181 179 183 219 223 185 158 132 126 132 134 136 134 131 135 135 127 120 111 145 169 163 162 164 149 142 143 144 146 148 148 150 150
337 334 333 332 330 330 327 324 322 321 321 320 318 315 314 314 314 317 317 319 320 320 324 321 320 327 333 342 4 332 359 137 250 271 16 10 171 181 177 171 171 176 188 199 208 215 226 240 238 221 224 227 206 211 193 174 178 185 248 233 176 148 129 131 139 140 143 136 135 140 127 120 128 128 143 212 173 154 160 144 138 141 143 146 147 147 151 153
335 333 333 332 330 328 325 324 323 320 320 320 318 317 318 318 318 317 316 319 319 318 320 319 320 330 349 17 76 40 88 267 263 257 302 252 153 174 172 168 167 174 193 203 207 213 213 215 227 220 221 227 203 215 206 178 185 197 237 210 173 140 135 137 142 145 142 135 134 130 119 123 129 132 156 193 138 126 147 139 134 139 142 144 147 149 152 155
336 335 333 331 329 326 324 322 321 319 320 319 319 320 322 323 322 318 316 320 319 316 314 313 322 334 13 48 155 27 237 248 240 194 178 157 148 165 170 170 173 180 194 204 202 199 204 214 228 223 216 226 219 225 199 173 192 219 230 192 167 137 137 135 139 148 138 128 130 127 121 128 127 112 102 123 122 120 134 135 133 139 142 145 150 151 152 157
336 335 332 330 328 326 324 322 320 320 321 320 322 324 324 324 324 321 320 321 318 314 309 307 323 50 57 19 279 303 259 239 206 176 179 168 155 164 173 176 182 186 192 206 209 201 201 209 223 222 216 228 244 254 184 162 196 220 214 168 151 135 137 138 141 146 135 134 140 132 120 119 117 85 42 328 114 123 133 136 138 143 148 149 152 154 156 160
337 334 331 330 329 327 325 325 323 324 324 322 325 326 325 326 326 327 325 326 322 312 304 296 297 111 80 316 134 252 270 243 176 184 192 184 167 168 177 180 184 188 192 206 211 210 210 215 226 230 244 243 245 235 179 179 214 201 179 147 141 134 132 137 142 138 129 144 148 128 115 114 106 85 71 313 338 106 139 141 144 147 152 154 155 157 160 164
339 337 334 332 330 327 326 328 327 328 330 328 329 329 329 330 329 331 331 331 325 311 292 273 223 143 159 335 157 217 233 148 156 176 188 190 180 178 183 185 186 188 192 200 212 216 218 233 258 293 260 245 264 234 176 211 260 135 135 120 111 103 83 63 136 143 138 147 153 119 104 86 64 57 43 45 360 319 145 145 152 154 158 157 157 159 163 168
344 342 339 336 333 331 329 330 332 335 336 332 332 335 334 333 334 335 336 336 328 317 288 249 151 140 140 3 221 225 195 118 132 181 194 186 181 194 193 189 191 193 192 193 217 221 223 240 257 276 263 277 305 253 178 272 283 124 127 102 77 75 83 319 206 169 150 138 153 122 100 68 59 89 89 85 90 321 151 150 156 158 161 157 157 161 165 168
347 345 342 340 337 336 334 334 338 340 337 333 336 341 336 334 339 340 342 341 334 324 299 165 138 135 109 250 241 245 256 283 286 256 220 196 153 187 195 190 196 201 200 200 215 221 224 236 239 243 268 283 276 254 272 293 139 131 130 114 95 58 139 182 209 202 147 137 166 133 113 130 113 150 145 110 135 148 161 160 162 161 160 158 158 165 167 166
348 347 344 343 341 339 337 339 342 341 336 337 342 342 335 336 344 345 346 346 342 326 176 131 128 119 103 258 266 276 294 291 278 261 223 203 164 164 188 192 202 208 208 210 217 227 238 251 256 251 263 257 239 306 339 323 106 127 116 111 134 119 196 194 197 179 136 170 187 105 120 169 172 156 121 88 141 155 156 159 185 167 159 163 162 168 171 165
348 349 348 346 343 341 341 343 344 342 339 340 340 339 330 327 342 348 354 359 359 4 140 132 136 120 20 277 280 291 308 292 255 239 213 197 176 168 189 195 207 212 211 216 225 243 259 269 272 251 250 253 259 28 351 345 72 135 121 118 169 149 170 207 207 172 149 186 207 76 122 150 168 153 125 104 117 155 157 152 237 188 163 165 165 169 172 164
348 349 349 348 345 344 345 345 344 340 338 337 334 336 326 300 318 350 7 19 24 106 127 126 157 151 9 281 293 301 298 262 235 230 206 193 180 177 189 195 207 212 212 220 232 250 265 275 265 223 221 248 221 72 29 2 36 167 142 147 182 157 151 193 205 188 165 165 192 223 144 119 171 164 130 114 115 138 152 159 228 213 166 164 168 169 170 163
347 347 348 349 347 345 346 347 342 334 331 331 326 328 321 283 280 349 36 40 49 132 140 110 151 150 263 280 303 307 283 248 246 235 199 194 190 182 182 187 203 207 211 224 237 250 262 264 241 219 165 164 178 93 76 339 245 220 156 150 180 164 153 168 183 191 173 158 171 179 140 126 149 149 132 128 132 133 149 173 218 236 172 164 169 167 167 164
347 345 345 348 349 346 347 347 340 330 327 327 325 325 318 275 251 238 84 70 68 127 226 302 98 118 278 281 290 284 283 261 240 238 215 201 197 188 181 181 193 193 195 229 244 240 249 257 128 137 210 207 215 117 148 209 193 187 169 145 172 168 165 173 169 173 169 159 153 144 135 136 141 137 128 133 141 133 143 179 217 253 186 166 166 165 168 167
346 345 343 343 347 348 346 345 339 333 329 325 327 328 320 275 235 213 188 134 100 303 282 252 184 147 286 268 261 272 271 248 230 237 240 215 195 189 185 184 181 165 155 183 248 219 189 48 94 149 195 220 222 182 195 232 217 147 88 111 148 164 167 166 153 162 160 145 150 154 145 147 150 144 132 132 145 135 135 171 211 247 200 169 167 166 171 171
346 345 342 340 342 346 346 344 338 335 333 328 330 337 338 349 340 217 183 186 203 236 255 218 189 239 279 273 286 295 273 232 227 225 232 225 187 177 182 183 161 150 169 167 221 231 130 113 200 201 198 221 229 210 216 246 276 320 327 112 155 156 152 154 152 165 155 130 157 159 135 147 153 145 135 131 141 145 152 172 202 222 196 177 172 166 173 173
344 343 341 339 338 340 342 342 338 334 331 326 329 342 309 269 312 303 261 232 228 228 240 233 208 233 258 264 280 290 276 216 232 224 227 217 166 160 179 173 153 184 213 175 172 250 118 162 222 216 207 220 234 234 231 244 266 274 279 274 165 167 163 151 153 163 159 124 134 141 127 143 147 139 136 138 150 162 170 176 196 201 182 180 176 167 168 167
343 342 339 339 338 338 336 335 335 331 327 325 329 333 247 279 284 298 314 289 270 233 232 242 231 245 258 261 267 262 218 189 235 244 232 189 147 163 178 144 153 201 229 178 144 144 162 217 232 221 214 223 240 248 246 244 246 245 252 262 149 150 113 110 151 160 153 86 139 141 128 127 132 131 133 146 153 147 152 149 174 218 189 177 176 168 162 158
341 339 338 338 339 340 334 329 329 329 332 327 316 270 279 304 304 312 349 333 293 267 233 236 226 251 263 267 273 255 175 175 205 236 224 161 141 173 159 144 163 185 211 183 155 154 186 235 230 224 216 217 238 250 254 252 244 240 227 130 141 153 137 137 171 159 123 53 147 134 108 94 79 99 118 129 104 93 113 98 43 319 263 197 181 170 163 161
338 337 337 335 338 345 336 328 326 332 340 323 304 295 319 318 295 304 349 106 286 287 246 234 220 232 256 265 276 320 120 175 179 211 203 158 142 174 162 160 163 175 213 194 166 165 216 237 216 216 220 209 226 241 243 244 247 246 219 158 167 171 164 156 160 151 91 66 137 116 81 13 161 134 147 141 128 114 122 131 133 280 290 290 253 185 167 166
338 335 333 333 338 344 338 331 319 331 333 316 295 328 351 340 288 299 4 27 290 289 241 235 232 224 256 262 237 195 145 203 204 205 193 162 152 164 169 163 151 186 217 206 184 185 236 244 207 207 226 214 218 234 228 210 223 253 221 182 170 154 129 140 151 147 100 119 184 147 92 307 247 184 185 165 156 161 145 159 185 210 261 292 278 221 186 177
338 333 330 331 333 338 342 339 315 329 327 305 304 336 347 349 338 358 26 32 309 295 246 221 213 204 263 289 210 111 46 269 231 188 183 176 172 165 174 189 160 190 204 201 198 196 234 241 211 205 222 218 218 236 227 193 187 248 220 182 157 131 132 162 160 152 138 169 197 198 134 112 246 233 198 174 169 174 164 172 191 196 218 251 255 235 213 194
339 333 328 327 329 337 343 307 318 328 317 306 327 334 342 345 342 1 39 40 338 307 261 295 359 179 216 229 166 100 137 274 258 182 184 185 180 148 176 212 176 194 203 175 203 231 223 227 217 209 217 218 216 235 230 181 163 242 221 169 153 145 157 175 171 159 147 125 173 207 134 102 223 235 189 174 173 179 182 185 186 197 210 220 244 246 223 211
338 333 326 321 326 333 331 309 318 320 303 321 329 332 340 338 332 4 75 65 313 303 246 244 255 201 225 227 178 157 207 258 330 234 194 185 181 134 178 223 205 226 250 179 221 251 225 214 214 207 209 216 215 230 224 172 173 238 207 156 161 161 165 176 176 159 125 113 159 210 141 99 243 233 147 165 181 192 196 191 185 192 201 205 227 249 254 245
336 332 322 316 320 326 324 316 307 300 319 334 339 334 331 331 342 62 84 79 299 288 254 68 297 231 229 245 289 262 262 4 269 248 183 181 188 125 177 215 211 257 253 196 215 252 240 218 206 194 199 217 221 229 222 182 207 232 171 144 159 167 170 173 173 151 112 116 178 206 175 118 234 225 149 169 197 203 198 191 188 189 192 196 209 227 283 287
332 330 319 311 315 317 316 309 299 309 328 331 333 330 325 331 40 70 38 31 290 275 260 66 295 241 152 135 274 239 229 256 232 173 131 181 181 77 195 196 168 285 280 233 228 240 246 241 214 189 191 212 217 224 222 205 217 229 146 128 126 155 167 154 153 108 85 72 212 204 188 142 157 220 192 195 206 194 187 187 190 191 190 193 198 189 192 250
328 324 314 308 307 305 305 302 305 324 321 320 328 332 336 359 74 80 38 67 266 287 318 309 285 302 155 155 207 218 218 259 211 139 161 207 77 91 286 17 27 317 319 299 272 259 270 277 248 208 183 195 211 224 231 223 222 208 145 128 99 126 134 99 305 244 148 238 235 208 192 154 158 220 209 212 211 176 181 189 190 192 193 192 191 181 184 215
326 318 307 301 296 288 276 275 298 314 312 320 334 347 41 37 35 67 247 287 317 307 323 304 281 277 229 164 188 204 198 242 207 147 168 161 120 180 181 164 174 4 316 283 303 313 297 257 241 237 194 171 179 216 243 259 241 159 129 112 99 130 147 147 205 215 185 236 229 194 180 178 236 240 206 202 197 178 185 194 189 187 187 188 188 183 185 200
325 316 304 296 287 280 272 275 294 304 308 325 344 26 80 61 15 301 281 310 295 280 311 311 313 296 208 126 311 233 197 203 187 161 169 128 114 199 215 206 169 139 256 271 334 324 289 262 238 216 231 160 128 159 219 252 238 155 151 137 127 146 161 180 194 185 198 231 170 153 159 208 271 287 203 183 180 177 181 191 188 181 184 186 185 183 186 192
326 319 308 296 283 275 272 276 289 295 306 337 14 49 52 56 316 311 320 305 289 315 342 349 349 346 125 131 298 240 141 171 172 154 162 73 58 199 244 256 192 173 191 342 312 236 195 262 231 186 210 206 140 152 172 175 170 197 177 139 144 162 157 180 188 174 187 172 95 120 156 207 207 297 265 164 152 161 169 178 175 172 184 182 177 182 188 192
332 325 311 297 283 269 261 267 284 293 313 19 48 53 59 63 289 313 303 293 324 344 342 5 18 7 2 12 344 16 43 334 241 122 118 78 47 334 262 344 342 275 135 106 268 247 181 252 243 216 207 190 185 178 144 108 31 265 165 115 164 187 148 164 187 165 140 118 74 66 30 322 191 284 336 92 126 150 158 156 157 161 167 165 172 187 187 198
338 330 310 292 278 255 241 263 282 286 91 66 45 37 88 209 235 243 281 303 348 352 340 8 25 14 353 355 354 2 9 3 15 43 55 80 50 5 359 17 5 16 65 129 232 12 14 277 288 305 252 195 195 177 126 125 157 269 87 150 218 179 130 140 187 137 92 101 54 29 91 347 239 314 354 49 123 140 144 146 151 154 156 161 174 189 186 195
340 335 311 283 268 241 234 265 271 184 104 79 67 304 250 226 217 210 298 327 352 37 38 35 17 7 7 358 345 355 4 8 21 34 16 27 30 353 348 353 4 10 9 348 191 161 114 286 291 310 246 228 203 129 97 126 143 128 168 239 247 115 104 115 139 76 62 97 69 20 129 181 182 131 333 12 114 120 125 128 131 136 145 157 151 138 120 73
333 330 304 270 251 227 234 257 242 145 90 64 14 282 241 221 251 226 37 342 338 57 58 58 3 28 37 20 332 347 13 19 15 28 30 24 5 334 355 346 349 355 341 345 19 218 110 323 289 312 240 249 224 91 93 320 8 133 164 256 195 119 164 307 147 148 93 108 119 18 20 166 199 197 184 122 85 85 97 100 96 94 98 96 82 72 67 63
327 346 314 253 230 215 227 229 200 114 69 36 256 285 246 238 270 242 72 12 32 65 63 62 20 43 44 44 291 334 24 38 18 28 53 29 317 327 6 342 334 346 335 349 46 295 47 87 289 320 317 262 38 64 170 266 308 63 42 347 61 132 175 177 173 155 122 129 146 80 360 242 256 239 146 93 65 41 40 73 75 69 72 71 70 70 73 82
327 21 276 243 231 207 201 191 145 91 101 210 205 235 263 280 301 282 281 68 72 84 107 128 37 29 358 351 302 328 34 47 39 55 86 2 323 342 6 353 342 340 329 354 57 17 20 67 304 318 328 101 82 246 170 165 212 57 33 332 313 32 95 154 202 129 122 139 149 131 170 269 286 241 124 110 106 107 88 82 79 75 75 69 60 63 72 91
38 32 258 277 249 184 170 144 88 106 154 245 248 238 267 290 355 325 331 52 82 164 151 128 105 62 322 341 347 338 38 53 37 56 105 45 41 353 348 357 355 341 333 6 33 28 27 29 338 329 340 18 250 253 187 153 148 135 148 229 193 153 117 115 281 320 88 122 148 149 164 248 329 334 131 128 127 129 120 103 94 85 81 76 67 62 59 62
62 298 267 311 222 173 142 81 258 166 161 244 229 223 335 4 20 352 349 25 48 78 95 108 116 72 341 350 358 358 58 70 15 4 114 80 80 268 317 353 2 355 14 28 331 325 114 68 2 311 286 263 261 281 310 114 118 117 156 250 111 131 121 122 192 257 65 89 112 107 108 101 338 316 130 125 121 116 109 103 99 91 81 79 77 71 65 60
91 265 283 307 227 174 111 27 243 176 226 227 182 94 18 24 19 5 2 14 25 5 6 61 107 84 68 93 360 3 42 65 28 6 276 53 47 285 311 6 17 15 39 31 315 326 5 44 22 316 294 301 311 342 4 24 64 61 347 358 33 332 160 145 161 154 108 110 111 89 87 128 237 285 127 118 118 117 109 104 103 97 85 82 81 77 76 70
244 263 288 319 252 168 105 352 220 199 236 217 81 72 38 35 43 32 3 344 359 12 351 342 62 120 128 79 33 13 36 68 50 13 357 27 313 297 340 21 25 25 52 215 281 349 355 16 55 23 356 352 355 7 3 356 20 44 305 320 351 347 38 106 96 72 86 172 145 118 111 139 159 183 146 126 126 123 115 111 110 104 97 93 87 79 78 75
324 271 276 316 327 121 126 207 174 153 313 55 82 98 78 27 34 58 26 344 1 13 345 339 48 104 92 65 56 30 36 68 55 8 4 3 318 321 3 13 10 14 1 278 243 87 37 14 77 86 84 68 42 27 320 305 322 329 321 341 359 11 21 61 92 74 94 158 125 116 123 124 144 165 160 145 136 126 116 110 106 106 106 101 96 90 80 76
27 12 315 320 353 58 43 252 112 86 38 61 67 60 94 97 354 22 28 14 6 12 14 10 33 69 60 59 70 38 27 40 47 35 17 2 338 332 4 15 17 11 359 356 13 70 104 17 30 104 142 175 186 214 232 234 331 355 358 4 10 13 29 81 101 101 146 130 50 118 145 142 159 171 164 161 145 131 127 120 111 109 108 104 103 97 84 76
63 24 12 341 327 16 13 6 54 62 54 90 78 360 79 80 24 354 9 17 3 19 37 25 33 48 30 42 76 42 13 21 34 35 4 352 344 337 357 18 23 9 358 5 15 41 99 21 358 13 13 217 209 240 273 342 38 36 25 17 10 7 27 77 100 133 141 117 19 238 155 147 162 170 161 162 149 136 135 129 123 117 111 111 111 102 91 82
34 272 346 40 287 295 27 19 48 58 47 63 66 36 69 70 53 16 356 357 4 26 48 25 28 40 27 37 87 44 14 28 19 358 346 357 360 356 355 1 12 7 3 11 15 50 102 34 346 341 336 344 346 322 334 21 41 44 41 28 10 2 20 67 129 154 149 139 162 180 164 152 158 163 159 156 149 143 139 130 126 124 119 119 116 108 99 89
15 329 307 1 344 244 276 356 69 82 58 55 53 45 77 82 64 40 13 7 2 16 59 62 31 36 33 37 74 75 39 51 5 339 359 9 2 19 14 349 343 355 7 14 4 42 100 30 347 347 339 349 360 354 359 24 40 44 40 29 13 5 27 56 98 132 115 118 144 150 146 138 143 156 154 150 146 142 135 130 131 130 129 126 119 114 108 100
9 301 313 354 346 307 319 2 63 90 53 48 66 55 77 88 76 58 34 47 27 350 22 74 58 55 53 44 60 69 34 63 79 357 29 35 13 21 30 320 300 338 5 15 347 2 63 30 353 10 5 350 360 2 0 12 46 52 34 21 14 11 33 61 80 91 84 97 124 127 118 112 49 58 111 133 138 133 133 139 141 139 137 129 120 115 112 108
336 279 302 16 329 334 352 350 43 89 46 25 84 72 63 87 97 95 43 50 112 48 21 83 72 51 49 42 43 26 348 6 22 348 2 38 268 256 323 297 189 357 1 3 348 357 27 24 6 32 35 341 349 356 351 1 50 50 24 6 5 8 20 74 109 119 118 120 124 123 126 153 145 98 99 129 138 134 139 141 135 131 129 123 118 116 112 109
354 322 340 81 212 343 4 340 5 83 106 265 107 79 77 96 95 96 80 353 37 55 55 91 88 63 42 32 15 324 314 326 318 316 324 310 276 283 48 64 80 75 20 360 7 359 13 44 53 57 59 323 329 339 344 12 45 34 352 329 341 10 53 113 111 130 137 134 140 155 162 162 150 138 144 154 148 140 140 134 129 128 120 112 111 111 108 107